Regional Weather Roundup
Issued by NWS

Home | Current Version | Previous Version | Text Only | Print | Product List | Glossary Off
Versions: 1 2 3 4 5 6 7 8 9 10 11 12 13 14 15 16 17 18 19 20 21 22 23 24 25 26 27 28 29 30 31 32 33 34 35 36 37 38 39 40 41 42 43 44 45 46 47 48 49 50

000
ASUS43 KMKX 181411
RWRWI

WISCONSIN REGIONAL WEATHER ROUNDUP
NATIONAL WEATHER SERVICE MILWAUKEE/SULLIVAN WI
900 AM CDT WED OCT 18 2017

NOTE: "FAIR" INDICATES FEW OR NO CLOUDS BELOW 12,000 FEET WITH NO
SIGNIFICANT WEATHER AND/OR OBSTRUCTIONS TO VISIBILITY.

WIZ001-002-006>008-014>016-023>028-181500-
NORTHWEST WISCONSIN

CITY           SKY/WX    TMP DP  RH WIND       PRES   REMARKS
SUPERIOR ARPT  SUNNY     54  45  72 SW5       29.71F
ASHLAND        SUNNY     56  44  64 VRB7      29.78S
HAYWARD        SUNNY     53  44  71 S12       29.82S
SIREN          SUNNY     55  44  68 S10       29.77F
CUMBERLAND     SUNNY     50  43  76 S9        29.84S
RICE LAKE      SUNNY     52  45  77 SE9       29.86S
CHETEK         SUNNY     52  46  81 S5        29.86S
LADYSMITH      SUNNY     53  46  75 S10       29.89R
EAU CLAIRE     SUNNY     53  45  74 S14       29.87S
MENOMONIE      SUNNY     54  47  77 SE6       29.86F
NEW RICHMOND   SUNNY     53  44  72 S10       29.82S
OSCEOLA        SUNNY     53  45  75 S8        29.83F
$$

WIZ003>005-009-010-017-018-181500-
NORTH CENTRAL WISCONSIN

CITY           SKY/WX    TMP DP  RH WIND       PRES   REMARKS
MANITOWISH WTR SUNNY     50  47  92 S7        29.85F
ARBOR VITAE    SUNNY     52  45  78 S13       29.87S
WOODRUFF       SUNNY     52  45  78 S13       29.87S
RHINELANDER    SUNNY     54  45  71 SW9       29.91S
EAGLE RIVER    SUNNY     50  42  73 S6        29.89S
LAND O LAKES   SUNNY     52  44  76 S8        29.88S
PHILLIPS       SUNNY     51  45  80 S9        29.87S
TOMAHAWK       SUNNY     49  45  84 S5        29.91S
MEDFORD        SUNNY     51  44  76 S12       29.91R
MERRILL        SUNNY     54  45  71 S9        29.92F
$$

WIZ029-030-035-036-043>047-181500-
CENTRAL WISCONSIN

CITY           SKY/WX    TMP DP  RH WIND       PRES   REMARKS
WAUSAU         SUNNY     52  45  77 S12       29.92F
MOSINEE        SUNNY     52  46  82 S12       29.94F
MARSHFIELD     SUNNY     51  44  77 S13G18    29.92F
STEVENS POINT  SUNNY     52  43  73 S14G21    29.96F
WAUPACA        SUNNY     54  46  73 S7        29.99S
WAUTOMA        SUNNY     52  45  77 S9        30.00F
WISC RAPIDS    SUNNY     54  45  71 SW12      29.96F
CAMP DOUGLAS   SUNNY     54  45  71 S6        29.97S
$$

WIZ011>013-019>022-031-037>040-048>050-181500-
NORTHEAST WISCONSIN

CITY           SKY/WX    TMP DP  RH WIND       PRES   REMARKS
ANTIGO         SUNNY     50  45  80 S9        29.93F
SHAWANO        SUNNY     54  46  72 S6        29.96F
OCONTO         SUNNY     55  46  71 SW9       29.98S
STURGEON BAY   SUNNY     55  45  68 S12       30.00F
GREEN BAY      SUNNY     55  48  77 S13       30.00F
MANITOWOC      SUNNY     54  44  69 S12       30.03F
APPLETON       SUNNY     54  41  62 S12       29.99F
CLINTONVILLE   SUNNY     54  45  71 S8        29.97F
OSHKOSH        SUNNY     53  44  71 S15       30.00F
$$

WIZ032>034-041-042-053>061-181500-
SOUTHWEST WISCONSIN

CITY           SKY/WX    TMP DP  RH WIND       PRES   REMARKS
LA CROSSE      SUNNY     56  46  69 S14G21    29.94F
SPARTA         SUNNY     54  45  71 S13       29.95F
VIROQUA        SUNNY     52  46  80 S10       29.97F
BOSCOBEL       SUNNY     55  46  71 S8        30.01S
PRAIRIE DU CHI SUNNY     55  43  65 S3        30.00S
PLATTEVILLE    SUNNY     53  46  78 S14       30.05S
$$

WIZ056-057-062-063-064-067-068-181500-
SOUTH CENTRAL WISCONSIN

CITY           SKY/WX    TMP DP  RH WIND       PRES   REMARKS
REEDSBURG      SUNNY     52  44  72 S13G18    30.00S
BARABOO/DELLS  SUNNY     53  42  67 S13       30.02S
LONE ROCK      SUNNY     54  46  74 S8        30.03F
MINERAL POINT  SUNNY     52  46  82 S7        30.04F
MADISON        SUNNY     51  42  71 S13       30.05F
MIDDLETON      SUNNY     53  43  70 S10       30.05F
WATERTOWN      SUNNY     53  43  70 S9        30.07F
MONROE         SUNNY     50  41  71 S14G21    30.07S
JANESVILLE     SUNNY     54  43  66 S10       30.10R
$$

WIZ051-052-058>065-066-070>072-181500-
SOUTHEAST WISCONSIN

CITY           SKY/WX    TMP DP  RH WIND       PRES   REMARKS
MILWAUKEE      SUNNY     56  43  61 SW10      30.11S
WAUKESHA       SUNNY     50  39  66 S7        30.11R
MILWAUKEE/TIMM SUNNY     54  39  58 S9        30.10S
RACINE         SUNNY     55  42  61 SW12G18   30.13S
BURLINGTON     SUNNY     53  44  72 SW5       30.12S
KENOSHA        SUNNY     54  42  64 SW10      30.13S
FOND DU LAC    SUNNY     56  41  57 S12G18    30.02F
SHEBOYGAN      SUNNY     53  47  79 S8        30.05F
WEST BEND      SUNNY     55  41  58 S7        30.07F
JUNEAU         SUNNY     52  42  68 S12G17    30.06F
$$

LSZ147-162-181500-
LAKE SUPERIOR

STATION/POSITION TIME  TEMP    WIND        PRES    WAVE
                       AIR SEA DIR/SP/G            HT/PER
                 (UTC) (F)     (DEG/KT/KT) (MB)    (FT/S)
W MID LAKE BUOY  1250   55 53              1006.7F   2/ 4
DEVILS ISLAND    1400   58     190/ 10/ 13 1006.5F
SAXON HARBOR     1330   57     190/ 11/ 17 1007.5F
$$

LMZ867-665-643>646-181500-
LAKE MICHIGAN

STATION/POSITION TIME  TEMP    WIND        PRES    WAVE
                       AIR SEA DIR/SP/G            HT/PER
                 (UTC) (F)     (DEG/KT/KT) (MB)    (FT/S)
S GREEN BAY BUOY 1400   57 58  200/ 16/ 21 1015.3
N MID LAKE BUOY  1350   59 59  190/ 23/ 27 1015.5F   5/ 6
NORTHPORT PIER   1340   59     180/  4/  9 1015.2F
KEWAUNEE LAKESHO 1348   55     180/ 15/ 17 1015.7F
SHEBOYGAN LAKESH 1400   54     190/ 13/ 15 1017.6F
PORT WASHINGTON  1340   57     240/  8/ 11 1019.6S
MILWAUKEE LAKESH 1350   55     220/ 11/ 12   N/A
S MID LAKE BUOY  1250   59 61  230/ 19/ 21 1020.5R   4/ 6
KENOSHA   LAKESH 1400   55     220/ 12/ 19 1020.0
$$

TC  - TEMPERATURE IN CELSIUS
VSB - VISIBILITY IN STATUTE MILES
WCI - WIND CHILL INDEX
HX  - HEAT INDEX





USA.gov is the U.S. government's official web portal to all federal, state and local government web resources and services.